Regional Weather Roundup
Issued by NWS

Home | Current Version | Previous Version | Text Only | Print | Product List | Glossary On
Versions: 1 2 3 4 5 6 7 8 9 10 11 12 13 14 15 16 17 18 19 20 21 22 23 24 25 26 27 28 29 30 31 32 33 34 35 36 37 38 39 40 41 42 43 44 45 46 47 48 49 50
000
ASUS43 KMKX 290621
RWRWI

WISCONSIN REGIONAL WEATHER ROUNDUP
NATIONAL WEATHER SERVICE MILWAUKEE/SULLIVAN WI
100 AM CDT MON MAY 29 2017

NOTE: "FAIR" INDICATES FEW OR NO CLOUDS BELOW 12,000 FEET WITH NO
SIGNIFICANT WEATHER AND/OR OBSTRUCTIONS TO VISIBILITY.

WIZ001-002-006>008-014>016-023>028-290700-
NORTHWEST WISCONSIN

CITY           SKY/WX    TMP DP  RH WIND       PRES   REMARKS
SUPERIOR ARPT  NOT AVBL
ASHLAND        MOCLDY    52  47  83 SW9       29.62F
6HR MIN TEMP:  50; 6HR MAX TEMP:  59;

HAYWARD        CLEAR     46  43  89 CALM      29.66F
6HR MIN TEMP:  46; 6HR MAX TEMP:  62; 6HR PCP: TRACE;

SIREN          CLOUDY    52  47  82 W7        29.68F
6HR MIN TEMP:  51; 6HR MAX TEMP:  60;

CUMBERLAND     CLOUDY    52  45  76 W9        29.69S
RICE LAKE      CLOUDY    55  47  76 W9        29.70S
6HR MIN TEMP:  54; 6HR MAX TEMP:  59;

CHETEK         CLOUDY    54  47  78 W8        29.70R
6HR MIN TEMP:  51; 6HR MAX TEMP:  57;

LADYSMITH      CLOUDY    54  50  89 W6        29.69S
6HR MIN TEMP:  51; 6HR MAX TEMP:  60;

EAU CLAIRE     CLEAR     51  49  92 SW6       29.69S
6HR MIN TEMP:  51; 6HR MAX TEMP:  60; 6HR PCP:  0.01;

MENOMONIE      PTCLDY    52  50  92 SW5       29.71S
6HR MIN TEMP:  51; 6HR MAX TEMP:  61;

NEW RICHMOND   CLOUDY    52  50  93 W8        29.71F
6HR MIN TEMP:  50; 6HR MAX TEMP:  61; 6HR PCP:  0.08;

OSCEOLA        CLOUDY    53  53 100 SW5       29.74S
6HR MIN TEMP:  52; 6HR MAX TEMP:  64; 6HR PCP:  0.11;

$$

WIZ003>005-009-010-017-018-290700-
NORTH CENTRAL WISCONSIN

CITY           SKY/WX    TMP DP  RH WIND       PRES   REMARKS
MANITOWISH WTR PTCLDY    48  48 100 SW3       29.64S
6HR MIN TEMP:  48; 6HR MAX TEMP:  57;

ARBOR VITAE    PTCLDY    52  49  91 W5        29.64F
6HR MIN TEMP:  49; 6HR MAX TEMP:  57; 6HR PCP:  0.01;

WOODRUFF       PTCLDY    52  49  91 W5        29.64F
6HR MIN TEMP:  49; 6HR MAX TEMP:  57; 6HR PCP:  0.01;

RHINELANDER    CLOUDY    52  48  86 W7        29.67S
6HR MIN TEMP:  47; 6HR MAX TEMP:  66; 6HR PCP: TRACE;

EAGLE RIVER    PTCLDY    50  49  95 SW7       29.64S
6HR MIN TEMP:  47; 6HR MAX TEMP:  60;

LAND O LAKES   MOCLDY    50  50 100 S3        29.65S
6HR MIN TEMP:  49; 6HR MAX TEMP:  60; 6HR PCP:  0.01;

PHILLIPS       CLOUDY    50  49  95 SW6       29.66S
6HR MIN TEMP:  50; 6HR MAX TEMP:  58;

TOMAHAWK       PTCLDY    49  46  89 CALM      29.68S
6HR MIN TEMP:  49; 6HR MAX TEMP:  59;

MEDFORD        MOCLDY    50  48  90 SW3       29.67F
6HR MIN TEMP:  50; 6HR MAX TEMP:  58;

MERRILL        CLEAR     50  48  94 CALM      29.69S
6HR MIN TEMP:  49; 6HR MAX TEMP:  58;

$$

WIZ029-030-035-036-043>047-290700-
CENTRAL WISCONSIN

CITY           SKY/WX    TMP DP  RH WIND       PRES   REMARKS
WAUSAU         PTCLDY    53  48  83 NW6       29.67F
6HR MIN TEMP:  53; 6HR MAX TEMP:  59; 6HR PCP:  0.01;

MOSINEE        CLOUDY    50  46  87 SW6       29.71S
MARSHFIELD     CLOUDY    51  47  86 W3        29.69F
6HR MIN TEMP:  50; 6HR MAX TEMP:  65; 6HR PCP: TRACE;

STEVENS POINT  MOCLDY    52  47  82 SW5       29.70F
6HR MIN TEMP:  52; 6HR MAX TEMP:  67;

WAUPACA        CLEAR     56  48  72 W5        29.71S
WAUTOMA        CLEAR     51  49  92 CALM      29.72S
6HR MIN TEMP:  51; 6HR MAX TEMP:  70;

WISC RAPIDS    MOCLDY    51  49  92 S3        29.71F
6HR MIN TEMP:  49; 6HR MAX TEMP:  70; 6HR PCP: TRACE;

CAMP DOUGLAS   PTCLDY    47  47  99 S3        29.71F
6HR MIN TEMP:  46; 6HR MAX TEMP:  69;

$$

WIZ011>013-019>022-031-037>040-048>050-290700-
NORTHEAST WISCONSIN

CITY           SKY/WX    TMP DP  RH WIND       PRES   REMARKS
ANTIGO         CLEAR     49  47  94 W7        29.69S
6HR MIN TEMP:  49; 6HR MAX TEMP:  64;

SHAWANO        CLEAR     57  48  72 SW3       29.68S
6HR MIN TEMP:  57; 6HR MAX TEMP:  71;

OCONTO         CLEAR     53  47  79 SW6       29.65S
6HR MIN TEMP:  51; 6HR MAX TEMP:  71;

STURGEON BAY   PTCLDY    57  50  77 SW9       29.66S
6HR MIN TEMP:  54; 6HR MAX TEMP:  65;

GREEN BAY      CLEAR     56  50  80 CALM      29.68S
6HR MIN TEMP:  55; 6HR MAX TEMP:  70;

MANITOWOC      CLEAR     57  48  72 SW3       29.69S
6HR MIN TEMP:  57; 6HR MAX TEMP:  69;

APPLETON       CLEAR     55  45  67 W8        29.68S
CLINTONVILLE   CLEAR     54  46  76 W5        29.69S
OSHKOSH        CLEAR     57  47  69 SW3       29.70S
6HR MIN TEMP:  55; 6HR MAX TEMP:  71;

$$

WIZ032>034-041-042-053>061-290700-
SOUTHWEST WISCONSIN

CITY           SKY/WX    TMP DP  RH WIND       PRES   REMARKS
LA CROSSE      CLEAR     58  49  72 NW7       29.72R
6HR MIN TEMP:  58; 6HR MAX TEMP:  74;

SPARTA         MOCLDY    50  48  92 CALM      29.72F
6HR MIN TEMP:  49; 6HR MAX TEMP:  71;

VIROQUA        CLEAR     55  44  67 MISG      29.74S
6HR MIN TEMP:  55; 6HR MAX TEMP:  70;

BOSCOBEL       CLEAR     53  48  83 SW6       29.75S
6HR MIN TEMP:  53; 6HR MAX TEMP:  74;

PRAIRIE DU CHI PTCLDY    62  42  48 W8G17     29.76S
6HR MIN TEMP:  54; 6HR MAX TEMP:  74;

PLATTEVILLE    CLEAR     56  49  76 SW7       29.77S
6HR MIN TEMP:  56; 6HR MAX TEMP:  73;

$$

WIZ056-057-062-063-064-067-068-290700-
SOUTH CENTRAL WISCONSIN

CITY           SKY/WX    TMP DP  RH WIND       PRES   REMARKS
REEDSBURG      CLEAR     50  49  96 CALM      29.72F
6HR MIN TEMP:  50; 6HR MAX TEMP:  70;

BARABOO/DELLS  CLEAR     52  44  75 CALM      29.73S
6HR MIN TEMP:  50; 6HR MAX TEMP:  69;

LONE ROCK      CLEAR     51  47  86 CALM      29.73F
6HR MIN TEMP:  50; 6HR MAX TEMP:  73;

MINERAL POINT  CLEAR     57  45  62 SW5       29.76S
MADISON        CLEAR     59  47  64 CALM      29.72F
6HR MIN TEMP:  56; 6HR MAX TEMP:  71;

MIDDLETON      CLEAR     55  48  77 CALM      29.74S
6HR MIN TEMP:  54; 6HR MAX TEMP:  72;

WATERTOWN      CLEAR     52  49  89 CALM      29.72S
6HR MIN TEMP:  52; 6HR MAX TEMP:  70;

MONROE         CLEAR     59  46  63 SW9       29.75F
JANESVILLE     PTCLDY    59  50  72 SW3       29.74S
$$

WIZ051-052-058>065-066-070>072-290700-
SOUTHEAST WISCONSIN

CITY           SKY/WX    TMP DP  RH WIND       PRES   REMARKS
MILWAUKEE      PTCLDY    62  50  64 SW6       29.73R
6HR MIN TEMP:  61; 6HR MAX TEMP:  75;

WAUKESHA       CLEAR     55  45  67 SW3       29.74S
MILWAUKEE/TIMM   N/A     54  45  71 SW3       29.73S
RACINE         CLEAR     59  47  64 SW6       29.75S
6HR MIN TEMP:  58; 6HR MAX TEMP:  73;

KENOSHA        CLOUDY    58  49  72 SW6       29.74S
6HR MIN TEMP:  54; 6HR MAX TEMP:  72;

FOND DU LAC    CLEAR     57  45  64 W6        29.71S
6HR MIN TEMP:  57; 6HR MAX TEMP:  72;

SHEBOYGAN      CLEAR     53  50  89 SW7       29.70R
6HR MIN TEMP:  53; 6HR MAX TEMP:  71;

WEST BEND      CLEAR     57  45  62 SW5       29.72R
JUNEAU         CLEAR     56  47  71 CALM      29.73S
6HR MIN TEMP:  55; 6HR MAX TEMP:  70;

$$

LSZ147-162-290700-
LAKE SUPERIOR

STATION/POSITION TIME  TEMP    WIND        PRES    WAVE
                       AIR SEA DIR/SP/G            HT/PER
                 (UTC) (F)     (DEG/KT/KT) (MB)    (FT/S)
W MID LAKE BUOY  0550   42 37  190/  4/  4 1002.3F   0
DEVILS ISLAND    0600   47     240/ 14/ 16 1002.4F
PORT WING        0540   56     220/  7/ 10 1003.4S
SAXON HARBOR     0540   55     200/  6/  8 1002.7F
$$

LMZ867-665-643>646-290700-
LAKE MICHIGAN

STATION/POSITION TIME  TEMP    WIND        PRES    WAVE
                       AIR SEA DIR/SP/G            HT/PER
                 (UTC) (F)     (DEG/KT/KT) (MB)    (FT/S)
CHAMBERS ISLAND  0540   53     210/  4/  6 1003.4F
N MID LAKE BUOY  0550   43 41  180/  6/  8 1004.6F   1
NORTHPORT PIER   0540



USA.gov is the U.S. government's official web portal to all federal, state and local government web resources and services.